User: anonymous   Login
Location: Unspecified
(0.0000°N, 0.0000°E)
Time: 11:58:45
(UTC+00:00)
Language:

DNEPR OBJECT Z - Orbit

View from above orbital plane
View from above orbital plane
View from above satellite
View from above satellite

Ground track
Ground track

The orbit data is extracted from the following two-line orbital elements,

1 39439U 13066Z   18017.50293028 +.00000442 +00000-0 +61318-4 0  9993
2 39439 097.6106 052.9572 0064513 291.0330 068.3992 14.81346956224367
Epoch (UTC): 17 January 2018 12:04:13
Eccentricity: 0.0064513
inclination: 97.6106°
perigee height: 580 km
apogee height: 670 km
right ascension of ascending node: 52.9572°
argument of perigee: 291.0330°
revolutions per day: 14.81346956
mean anomaly at epoch: 68.3992°
orbit number at epoch: 22436

The dashed part of the orbit path shows where the satellite is in the earth's shadow,  

DLR